2024-172A

Last updated on Fri Oct 04 2024 00:02:04 GMT+0000 (Coordinated Universal Time)

1 61220U 24172A 24277.52167399 .00015175 00000+0 21544-2 0 9997 2 61220 98.0183 3.9181 0000703 39.2039 320.9222 14.77037125 1851
UTC large
Height (km)
Speed (km/s)
/
Latitude / Longitude
Inclination (degrees)
Orbital Period (minutes)
Azimuth
Elevation
Range (km)
Doppler Factor

Next 0 passes for location: London (51.5072 / 0.1276)

Sorry there are no passes over London.